SCP
-0 -0 -0 -0 -0 -0 -0 -0 -0 -0 -0 0 0 0 0 0 -0 -0 -0 -0 -0 -0 -0 -0 -0 -0 -0 -0 -0 -0 -0 -0 -0 -0 -0 -0 -0 -0 -0 -0 0 -0 0
-0 -0 -0 -0 -0 -0 -0 0 0 -0 -0 0 0 0 0 0 0 -0 0 -0 -0 -0 -0 -0 -0 -0 -0 -0 -0 -0 -0 0 -0 -0 -0 0 -0 0 -0 -0 0 -0 0
-0 -0 -0 -0 -0 -0 0 -0 0 -0 -0 -0 0 0 0 0 0 -0 -0 -0 -0 -0 -0 -0 -0 -0 -0 -0 -0 -0 -0 0 -0 -0 -0 -0 0 0 0 -0 0 -0 0
-0 -0 -0 -0 -0 -0 -0 0 -0 -0 -0 -0 -0 0 0 0 0 -0 -0 -0 -0 -0 -0 -0 -0 -0 -0 -0 -0 -0 -0 0 0 0 0 0 0 0 0 -0 -0 -0 0
-0 -0 -0 -0 -0 -0 -0 -0 -0 -0 -0 -0 -0 -0 0 0 0 0 -0 -0 -0 -0 -0 -0 -0 -0 -0 -0 -0 0 0 0 0 0 0 0 -0 0 0 -0 0 -0 -0
-0 -0 -0 -0 -0 -0 -0 -0 -0 -0 -0 -0 -0 -0 -0 0 0 0 0 0 -0 -0 -0 -0 -0 -0 -0 0 0 0 0 0 -0 0 0 0 0 0 0 -0 -0 -0 0
-0 -0 -0 -0 -0 -0 -0 0 -0 -0 -0 -0 -0 -0 0 0 0 0 0 0 0 0 0 0 0 0 0 0 0 0 0 0 0 0 0 0 0 0 0 -0 -0 0 0
-0 -0 -0 -0 0 -0 0 0 0 0 -0 -0 -0 -0 -0 0 0 0 0 0 0 0 0 0 0 0 0 0 0 0 -0 -0 -0 0 0 0 0 0 0 -0 0 0 0
-0 -0 -0 0 0 0 0 0 0 0 0 0 0 -0 -0 -0 0 -0 0 0 0 0 0 0 0 0 0 0 0 0 -0 -0 0 0 -0 0 0 0 -0 0 0 0 0
0 0 0 0 0 0 0 0 0 0 0 0 0 0 0 0 0 0 0 -0 -0 -0 -0 0 0 0 0 0 0 0 -0 -0 -0 -0 0 0 0 0 0 0 0 -0 -0
0 0 0 0 0 0 0 0 0 0 0 0 0 0 0 0 0 0 0 0 0 0 0 0 0 0 0 0 0 0 0 0 0 0 0 0 0 0 0 0 -0 -0 0
0 0 0 0 0 0 0 0 0 0 0 0 0 0 0 -0 0 0 0 0 0 0 0 0 0 0 0 0 0 0 0 0 0 0 0 0 0 0 0 0 -0 -0 0
-0 0 0 0 0 -0 0 0 0 0 0 0 0 0 0 0 0 0 0 0 0 0 0 0 0 0 0 0 0 0 0 0 0 0 0 0 0 0 0 0 -0 0 -0
-0 0 0 -0 -0 -0 -0 -0 -0 -0 -0 0 0 0 0 0 0 0 0 0 0 0 0 0 0 0 0 0 0 0 0 0 0 0 0 0 0 0 0 -0 -0 -0 0
-0 0 0 0 0 0 0 -0 -0 -0 -0 -0 -0 -0 0 0 0 0 0 0 0 0 0 0 0 0 0 0 0 0 0 0 0 0 0 0 0 0 0 -0 -0 0 0
0 0 0 0 0 0 0 0 0 0 0 0 -0 -0 -0 0 0 0 0 0 0 0 0 0 0 0 0 0 0 0 0 0 0 0 0 0 0 0 0 0 0 0 0
0 0 0 0 0 0 0 0 0 0 0 0 0 0 0 0 0 0 0 0 0 0 0 0 0 0 0 0 0 0 0 0 0 0 0 0 0 0 0 0 0 0 0
0 0 0 0 0 0 0 0 0 0 0 0 0 0 0 0 0 0 0 0 0 0 0 0 0 0 0 0 0 0 0 0 0 0 0 0 0 0 0 0 0 0 0
0 0 0 0 0 0 0 0 0 0 0 0 0 0 0 0 0 0 0 0 0 0 0 0 0 0 0 0 0 0 0 0 0 0 0 0 0 0 0 0 0 0 0
0 0 0 0 0 0 0 0 0 0 0 0 0 0 0 0 0 0 0 0 0 0 0 0 0 0 0 0 0 0 0 0 0 0 0 0 0 0 0 0 0 0 0
0 0 0 0 0 0 0 0 0 0 0 0 0 0 0 0 0 0 0 0 0 0 0 0 0 0 0 0 0 0 0 0 0 0 0 0 0 0 0 0 0 0 0
0 0 0 0 0 0 0 0 0 0 0 0 0 0 0 0 0 0 0 0 0 0 0 0 0 0 0 0 0 0 0 0 0 0 0 0 0 0 0 0 0 0 0
0 0 0 0 0 0 0 0 0 0 0 0 0 0 0 0 0 0 0 0 0 0 0 0 0 0 0 0 0 0 0 0 0 0 0 0 0 0 0 0 0 0 0
0 0 0 0 0 0 0 0 1 0 0 0 0 0 0 0 0 0 0 0 0 0 0 0 0 0 0 0 0 0 0 0 0 0 0 0 0 0 0 0 0 0 0
0 0 0 0 0 0 0 0 0 0 0 0 0 0 0 0 0 0 0 0 0 0 0 0 0 0 0 0 0 0 0 0 0 0 0 0 0 0 0 0 0 0 0
0 0 0 0 0 0 0 0 0 1 1 1 0 0 0 1 1 0 0 0 0 0 0 0 0 0 0 0 0 0 0 0 0 0 0 0 0 0 0 0 0 0 0
Wind_Speed_500mb
26 32 32 32 34 31 29 27 27 29 29 26 24 20 17 17 18 17 16 16 15 16 17 19 19 18 19 19 20 22 25 30 37 42 33 33 36 36 34 35 37 36 37
31 38 36 37 36 33 31 33 33 31 25 22 19 14 12 12 15 16 15 14 15 17 13 13 16 18 22 27 28 28 32 40 47 41 37 31 33 34 34 35 37 37 35
37 43 40 40 37 36 35 35 34 27 20 18 16 12 11 13 15 18 18 17 24 18 15 21 21 24 25 25 27 30 36 46 45 35 26 28 31 33 31 33 34 33 30
41 45 42 41 39 35 34 33 31 26 21 18 15 14 12 19 20 24 24 27 23 20 24 25 29 25 24 25 26 29 32 39 35 32 18 21 28 29 28 29 30 30 28
42 46 43 41 38 35 35 34 31 25 14 16 18 15 14 18 20 26 24 25 24 22 23 24 22 21 21 22 24 25 26 29 28 23 14 19 25 27 27 27 26 25 25
41 42 42 41 37 34 36 34 32 25 18 16 18 15 16 20 21 22 24 24 23 18 18 19 19 16 16 18 20 20 20 25 22 22 13 18 20 23 23 23 22 22 22
41 36 42 38 36 32 32 33 30 25 19 16 19 20 16 20 21 21 20 19 19 16 14 14 14 13 12 13 14 15 15 14 17 14 9 17 17 18 18 18 19 19 19
46 37 43 39 35 31 29 28 27 22 18 20 19 16 22 19 16 15 17 19 15 12 9 9 9 8 7 8 9 10 10 10 13 10 10 12 12 12 12 13 14 14 13
44 42 47 42 38 32 31 29 27 22 23 20 26 18 20 20 20 19 14 15 14 11 8 6 5 4 2 3 5 6 7 7 4 7 7 8 10 10 10 9 10 9 9
39 43 48 43 42 39 35 33 29 27 25 25 21 26 24 18 25 23 21 14 12 12 10 7 4 3 2 3 4 5 6 5 4 6 6 7 9 9 10 9 9 8 8
37 34 37 40 39 39 37 34 32 30 25 19 18 18 13 11 11 12 13 13 8 10 8 5 5 4 4 5 4 6 7 8 7 8 11 10 10 11 11 11 10 10 10
45 40 35 34 34 32 33 34 31 30 29 27 25 22 18 15 11 14 15 12 10 8 5 6 7 6 6 7 4 7 8 10 12 11 15 12 12 13 13 13 13 14 14
47 45 40 34 32 33 30 31 32 30 28 29 26 24 23 22 24 21 21 19 17 14 13 12 11 10 12 9 13 16 15 16 14 13 16 13 14 15 16 16 16 16 16
44 47 45 41 38 38 37 31 33 31 29 27 27 25 26 27 31 26 26 20 20 19 15 18 16 15 16 16 18 20 20 19 18 18 20 19 18 18 18 18 18 18 17
46 45 46 43 45 44 43 34 27 27 29 31 31 30 29 28 28 24 23 22 20 18 19 19 20 22 21 21 22 22 21 21 20 19 18 18 17 19 20 20 20 20 18
55 50 50 46 43 43 43 35 34 32 31 31 30 32 35 27 26 25 26 26 25 23 22 21 22 22 23 23 22 21 21 22 22 20 19 19 19 20 21 22 23 22 22
60 54 53 59 46 44 42 40 39 39 37 35 39 36 31 32 31 28 28 28 26 26 25 25 24 26 27 26 26 25 26 25 25 25 24 23 23 23 23 26 27 28 27
54 59 53 55 59 49 46 44 42 41 42 41 37 38 37 35 36 36 34 32 30 30 30 30 30 31 31 28 26 26 25 29 29 27 26 24 23 24 25 24 27 29 29
43 45 49 49 58 59 49 45 44 43 42 43 43 42 41 39 40 41 39 36 34 35 36 35 35 32 32 31 27 28 31 34 36 34 31 26 27 26 25 25 22 24 24
44 44 54 52 49 57 54 48 44 45 45 46 44 44 42 42 42 42 42 40 39 38 38 36 37 34 36 30 31 34 37 39 37 34 30 27 28 29 25 23 22 19 19
47 46 51 50 43 49 61 57 54 50 49 51 46 45 46 45 44 44 44 44 43 43 42 39 38 39 37 32 39 39 41 32 30 21 22 26 33 32 24 22 26 24 22
47 49 47 47 45 46 53 58 56 54 50 51 49 50 51 51 49 48 46 46 46 46 47 42 46 42 42 35 42 36 30 31 20 18 22 27 29 19 22 26 31 30 26
51 51 51 53 51 50 51 51 53 55 56 59 58 57 56 55 55 54 51 49 50 48 47 47 46 46 44 42 38 34 12 13 7 15 20 21 22 23 31 33 33 34 32
41 41 49 51 52 51 52 55 58 63 64 60 59 60 65 62 60 57 57 56 54 51 48 50 48 46 42 49 45 44 49 44 25 18 23 25 27 31 34 37 38 41 38
25 39 46 46 44 52 56 59 62 66 68 63 57 60 58 59 61 59 59 61 59 57 53 51 51 52 50 48 50 53 47 48 52 51 43 35 35 39 43 44 45 50 47
38 37 42 46 54 54 57 57 64 70 72 71 67 67 64 63 63 63 63 66 64 64 62 58 54 53 52 55 53 57 63 60 57 57 54 54 47 44 45 52 51 47 46
Wind_Direction_500mb
191 173 155 147 145 147 149 145 139 135 138 129 125 123 129 139 147 146 139 135 146 134 117 99 102 94 86 85 84 77 74 77 72 63 62 72 76 78 82 69 70 64 73
162 161 152 149 146 141 142 140 139 137 140 141 127 118 120 137 156 168 168 155 144 155 121 110 104 98 96 90 88 85 82 80 69 59 43 62 73 76 70 69 66 70 76
161 157 152 148 151 146 142 139 140 141 137 135 124 113 101 127 137 147 149 140 115 137 127 112 99 101 100 93 87 89 90 84 77 63 34 56 69 71 68 64 67 69 74
159 157 155 151 152 151 146 143 147 143 145 141 127 119 99 110 116 130 128 119 119 123 127 114 94 94 98 93 88 90 93 93 92 96 69 45 65 72 71 69 68 66 66
160 161 159 155 156 155 153 151 151 152 158 137 135 123 119 121 130 140 122 119 113 109 106 119 110 97 90 90 85 85 91 90 82 86 81 57 65 68 68 68 68 66 65
160 169 162 161 159 157 159 156 158 162 165 172 145 133 136 148 129 135 132 126 124 117 114 115 109 97 86 83 81 83 84 81 80 97 51 64 60 65 66 66 66 65 64
156 173 166 167 165 163 164 164 168 175 196 215 153 150 146 137 148 138 136 137 135 129 125 115 112 103 88 80 78 78 78 74 79 77 60 56 52 58 62 63 63 61 60
174 180 175 173 172 172 172 175 179 183 173 153 155 151 154 145 144 151 164 162 154 147 133 128 117 107 93 79 73 68 69 60 66 50 40 47 39 44 51 53 55 54 55
185 178 175 176 178 179 180 180 182 181 171 164 163 164 161 156 145 153 172 159 161 158 164 161 149 137 112 72 54 48 48 52 30 37 25 20 14 10 21 28 36 33 35
188 174 174 177 175 180 181 182 184 186 185 170 174 177 182 173 179 176 181 184 197 183 196 199 213 237 294 353 8 5 357 338 325 350 327 338 336 337 345 351 359 355 2
182 182 178 179 182 183 186 189 192 196 203 209 196 199 187 190 191 177 195 203 223 218 233 228 245 266 290 295 310 315 309 294 323 302 294 317 322 319 320 329 335 328 330
179 184 188 193 186 187 191 190 193 198 206 212 213 211 210 205 205 210 213 224 236 244 232 238 248 260 265 267 288 306 297 298 303 299 299 307 306 309 309 314 314 315 318
186 182 190 199 187 194 199 189 194 194 199 201 202 202 200 184 219 221 232 238 243 241 239 237 245 251 251 268 272 290 291 293 291 297 297 306 301 300 303 305 306 308 309
193 190 191 196 190 203 198 206 207 201 201 199 203 202 200 197 215 222 235 233 235 236 242 252 255 259 267 270 271 277 283 287 288 289 294 302 298 296 297 299 301 301 300
200 199 197 201 201 206 200 209 208 209 205 202 204 207 207 211 219 223 225 236 244 248 249 247 252 259 267 271 277 282 284 286 287 289 288 292 293 291 293 296 297 296 296
197 196 199 199 205 213 207 207 201 212 221 215 217 220 218 219 226 228 228 233 241 246 252 255 256 262 268 272 276 281 283 284 288 290 290 294 292 290 292 292 289 287 286
210 200 202 202 201 208 219 208 208 215 220 223 216 227 230 221 225 233 233 235 239 244 247 250 248 248 257 266 272 276 279 281 284 287 288 286 284 285 285 283 280 277 275
227 205 211 212 200 207 214 215 213 221 221 228 226 227 232 231 229 233 236 240 245 246 249 248 251 254 257 260 267 271 275 284 290 286 283 283 285 286 282 277 275 275 271
227 207 219 227 213 207 209 209 213 218 225 228 230 232 236 237 235 237 241 244 245 245 247 249 250 251 248 262 270 274 280 284 288 289 285 284 287 284 279 274 272 273 265
215 214 213 231 225 214 210 215 218 221 222 228 234 237 239 240 238 238 241 243 245 241 242 247 255 253 263 268 272 272 277 280 284 281 273 270 272 272 268 263 263 263 259
209 217 215 225 224 216 216 218 220 221 224 231 236 238 242 243 242 239 240 242 245 240 247 253 262 257 252 256 267 273 281 284 290 290 282 265 265 265 251 250 255 255 259
209 220 217 226 231 222 221 223 228 227 231 241 240 241 242 246 247 247 245 244 244 241 243 250 252 256 255 249 259 272 281 293 276 288 281 268 268 238 259 246 250 260 260
219 215 222 219 229 234 231 229 232 240 240 242 240 243 244 247 249 249 252 249 246 245 245 247 246 253 255 251 252 245 255 252 281 238 257 268 246 256 251 253 255 257 262
220 230 230 227 224 228 239 234 234 236 247 251 250 249 251 252 252 252 250 251 249 249 247 245 245 255 253 251 252 246 247 251 264 251 256 261 235 239 242 261 256 256 273
214 225 227 224 230 232 230 238 239 241 252 258 256 260 260 258 255 252 249 247 248 248 253 253 242 245 253 253 250 253 253 253 250 253 255 242 244 249 248 248 253 263 270
212 216 221 230 227 225 228 234 240 247 252 255 256 256 260 261 260 257 252 248 247 246 247 249 249 243 247 248 254 247 252 256 253 247 245 251 250 250 250 263 265 254 265
Wind_Speed_850mb
26 32 32 32 34 31 29 27 27 29 29 26 24 20 17 17 18 17 16 16 15 16 17 19 19 18 19 19 20 22 25 30 37 42 33 33 36 36 34 35 37 36 37
31 38 36 37 36 33 31 33 33 31 25 22 19 14 12 12 15 16 15 14 15 17 13 13 16 18 22 27 28 28 32 40 47 41 37 31 33 34 34 35 37 37 35
37 43 40 40 37 36 35 35 34 27 20 18 16 12 11 13 15 18 18 17 24 18 15 21 21 24 25 25 27 30 36 46 45 35 26 28 31 33 31 33 34 33 30
41 45 42 41 39 35 34 33 31 26 21 18 15 14 12 19 20 24 24 27 23 20 24 25 29 25 24 25 26 29 32 39 35 32 18 21 28 29 28 29 30 30 28
42 46 43 41 38 35 35 34 31 25 14 16 18 15 14 18 20 26 24 25 24 22 23 24 22 21 21 22 24 25 26 29 28 23 14 19 25 27 27 27 26 25 25
41 42 42 41 37 34 36 34 32 25 18 16 18 15 16 20 21 22 24 24 23 18 18 19 19 16 16 18 20 20 20 25 22 22 13 18 20 23 23 23 22 22 22
41 36 42 38 36 32 32 33 30 25 19 16 19 20 16 20 21 21 20 19 19 16 14 14 14 13 12 13 14 15 15 14 17 14 9 17 17 18 18 18 19 19 19
46 37 43 39 35 31 29 28 27 22 18 20 19 16 22 19 16 15 17 19 15 12 9 9 9 8 7 8 9 10 10 10 13 10 10 12 12 12 12 13 14 14 13
44 42 47 42 38 32 31 29 27 22 23 20 26 18 20 20 20 19 14 15 14 11 8 6 5 4 2 3 5 6 7 7 4 7 7 8 10 10 10 9 10 9 9
39 43 48 43 42 39 35 33 29 27 25 25 21 26 24 18 25 23 21 14 12 12 10 7 4 3 2 3 4 5 6 5 4 6 6 7 9 9 10 9 9 8 8
37 34 37 40 39 39 37 34 32 30 25 19 18 18 13 11 11 12 13 13 8 10 8 5 5 4 4 5 4 6 7 8 7 8 11 10 10 11 11 11 10 10 10
45 40 35 34 34 32 33 34 31 30 29 27 25 22 18 15 11 14 15 12 10 8 5 6 7 6 6 7 4 7 8 10 12 11 15 12 12 13 13 13 13 14 14
47 45 40 34 32 33 30 31 32 30 28 29 26 24 23 22 24 21 21 19 17 14 13 12 11 10 12 9 13 16 15 16 14 13 16 13 14 15 16 16 16 16 16
44 47 45 41 38 38 37 31 33 31 29 27 27 25 26 27 31 26 26 20 20 19 15 18 16 15 16 16 18 20 20 19 18 18 20 19 18 18 18 18 18 18 17
46 45 46 43 45 44 43 34 27 27 29 31 31 30 29 28 28 24 23 22 20 18 19 19 20 22 21 21 22 22 21 21 20 19 18 18 17 19 20 20 20 20 18
55 50 50 46 43 43 43 35 34 32 31 31 30 32 35 27 26 25 26 26 25 23 22 21 22 22 23 23 22 21 21 22 22 20 19 19 19 20 21 22 23 22 22
60 54 53 59 46 44 42 40 39 39 37 35 39 36 31 32 31 28 28 28 26 26 25 25 24 26 27 26 26 25 26 25 25 25 24 23 23 23 23 26 27 28 27
54 59 53 55 59 49 46 44 42 41 42 41 37 38 37 35 36 36 34 32 30 30 30 30 30 31 31 28 26 26 25 29 29 27 26 24 23 24 25 24 27 29 29
43 45 49 49 58 59 49 45 44 43 42 43 43 42 41 39 40 41 39 36 34 35 36 35 35 32 32 31 27 28 31 34 36 34 31 26 27 26 25 25 22 24 24
44 44 54 52 49 57 54 48 44 45 45 46 44 44 42 42 42 42 42 40 39 38 38 36 37 34 36 30 31 34 37 39 37 34 30 27 28 29 25 23 22 19 19
47 46 51 50 43 49 61 57 54 50 49 51 46 45 46 45 44 44 44 44 43 43 42 39 38 39 37 32 39 39 41 32 30 21 22 26 33 32 24 22 26 24 22
47 49 47 47 45 46 53 58 56 54 50 51 49 50 51 51 49 48 46 46 46 46 47 42 46 42 42 35 42 36 30 31 20 18 22 27 29 19 22 26 31 30 26
51 51 51 53 51 50 51 51 53 55 56 59 58 57 56 55 55 54 51 49 50 48 47 47 46 46 44 42 38 34 12 13 7 15 20 21 22 23 31 33 33 34 32
41 41 49 51 52 51 52 55 58 63 64 60 59 60 65 62 60 57 57 56 54 51 48 50 48 46 42 49 45 44 49 44 25 18 23 25 27 31 34 37 38 41 38
25 39 46 46 44 52 56 59 62 66 68 63 57 60 58 59 61 59 59 61 59 57 53 51 51 52 50 48 50 53 47 48 52 51 43 35 35 39 43 44 45 50 47
38 37 42 46 54 54 57 57 64 70 72 71 67 67 64 63 63 63 63 66 64 64 62 58 54 53 52 55 53 57 63 60 57 57 54 54 47 44 45 52 51 47 46
Wind_Direction_850mb
191 173 155 147 145 147 149 145 139 135 138 129 125 123 129 139 147 146 139 135 146 134 117 99 102 94 86 85 84 77 74 77 72 63 62 72 76 78 82 69 70 64 73
162 161 152 149 146 141 142 140 139 137 140 141 127 118 120 137 156 168 168 155 144 155 121 110 104 98 96 90 88 85 82 80 69 59 43 62 73 76 70 69 66 70 76
161 157 152 148 151 146 142 139 140 141 137 135 124 113 101 127 137 147 149 140 115 137 127 112 99 101 100 93 87 89 90 84 77 63 34 56 69 71 68 64 67 69 74
159 157 155 151 152 151 146 143 147 143 145 141 127 119 99 110 116 130 128 119 119 123 127 114 94 94 98 93 88 90 93 93 92 96 69 45 65 72 71 69 68 66 66
160 161 159 155 156 155 153 151 151 152 158 137 135 123 119 121 130 140 122 119 113 109 106 119 110 97 90 90 85 85 91 90 82 86 81 57 65 68 68 68 68 66 65
160 169 162 161 159 157 159 156 158 162 165 172 145 133 136 148 129 135 132 126 124 117 114 115 109 97 86 83 81 83 84 81 80 97 51 64 60 65 66 66 66 65 64
156 173 166 167 165 163 164 164 168 175 196 215 153 150 146 137 148 138 136 137 135 129 125 115 112 103 88 80 78 78 78 74 79 77 60 56 52 58 62 63 63 61 60
174 180 175 173 172 172 172 175 179 183 173 153 155 151 154 145 144 151 164 162 154 147 133 128 117 107 93 79 73 68 69 60 66 50 40 47 39 44 51 53 55 54 55
185 178 175 176 178 179 180 180 182 181 171 164 163 164 161 156 145 153 172 159 161 158 164 161 149 137 112 72 54 48 48 52 30 37 25 20 14 10 21 28 36 33 35
188 174 174 177 175 180 181 182 184 186 185 170 174 177 182 173 179 176 181 184 197 183 196 199 213 237 294 353 8 5 357 338 325 350 327 338 336 337 345 351 359 355 2
182 182 178 179 182 183 186 189 192 196 203 209 196 199 187 190 191 177 195 203 223 218 233 228 245 266 290 295 310 315 309 294 323 302 294 317 322 319 320 329 335 328 330
179 184 188 193 186 187 191 190 193 198 206 212 213 211 210 205 205 210 213 224 236 244 232 238 248 260 265 267 288 306 297 298 303 299 299 307 306 309 309 314 314 315 318
186 182 190 199 187 194 199 189 194 194 199 201 202 202 200 184 219 221 232 238 243 241 239 237 245 251 251 268 272 290 291 293 291 297 297 306 301 300 303 305 306 308 309
193 190 191 196 190 203 198 206 207 201 201 199 203 202 200 197 215 222 235 233 235 236 242 252 255 259 267 270 271 277 283 287 288 289 294 302 298 296 297 299 301 301 300
200 199 197 201 201 206 200 209 208 209 205 202 204 207 207 211 219 223 225 236 244 248 249 247 252 259 267 271 277 282 284 286 287 289 288 292 293 291 293 296 297 296 296
197 196 199 199 205 213 207 207 201 212 221 215 217 220 218 219 226 228 228 233 241 246 252 255 256 262 268 272 276 281 283 284 288 290 290 294 292 290 292 292 289 287 286
210 200 202 202 201 208 219 208 208 215 220 223 216 227 230 221 225 233 233 235 239 244 247 250 248 248 257 266 272 276 279 281 284 287 288 286 284 285 285 283 280 277 275
227 205 211 212 200 207 214 215 213 221 221 228 226 227 232 231 229 233 236 240 245 246 249 248 251 254 257 260 267 271 275 284 290 286 283 283 285 286 282 277 275 275 271
227 207 219 227 213 207 209 209 213 218 225 228 230 232 236 237 235 237 241 244 245 245 247 249 250 251 248 262 270 274 280 284 288 289 285 284 287 284 279 274 272 273 265
215 214 213 231 225 214 210 215 218 221 222 228 234 237 239 240 238 238 241 243 245 241 242 247 255 253 263 268 272 272 277 280 284 281 273 270 272 272 268 263 263 263 259
209 217 215 225 224 216 216 218 220 221 224 231 236 238 242 243 242 239 240 242 245 240 247 253 262 257 252 256 267 273 281 284 290 290 282 265 265 265 251 250 255 255 259
209 220 217 226 231 222 221 223 228 227 231 241 240 241 242 246 247 247 245 244 244 241 243 250 252 256 255 249 259 272 281 293 276 288 281 268 268 238 259 246 250 260 260
219 215 222 219 229 234 231 229 232 240 240 242 240 243 244 247 249 249 252 249 246 245 245 247 246 253 255 251 252 245 255 252 281 238 257 268 246 256 251 253 255 257 262
220 230 230 227 224 228 239 234 234 236 247 251 250 249 251 252 252 252 250 251 249 249 247 245 245 255 253 251 252 246 247 251 264 251 256 261 235 239 242 261 256 256 273
214 225 227 224 230 232 230 238 239 241 252 258 256 260 260 258 255 252 249 247 248 248 253 253 242 245 253 253 250 253 253 253 250 253 255 242 244 249 248 248 253 263 270
212 216 221 230 227 225 228 234 240 247 252 255 256 256 260 261 260 257 252 248 247 246 247 249 249 243 247 248 254 247 252 256 253 247 245 251 250 250 250 263 265 254 265